Starlink 5293

operational
NORAD ID: 55295 Int'l Des: 2023-010 Owner: SPXS Country: US Constellation: starlink
LEOCIRCULAR

About Starlink 5293

Description loading...

Live Position

Loading 3D Globe...

Upcoming Passes

Altitude History

Altitude vs Time

uPlot chart will show altitude changes over time

Two-Line Element Set

1 55295U 23010AC 25338.56350742 .00000452 00000-0 45681-4 0 9994
2 55295 69.9999 284.4329 0002570 271.8472 88.2393 14.98335930158536
Epoch: Dec 4, 2025 • Age: 17 hours

Current Status

Altitude 579.1 km
Velocity 7.57 km/s
Sub-Earth Point -22.14°S, 59.96°W
Launch Date Jan 19, 2023
Age 2.8 years
Type internet

Technical Details

Classification Payload
Mass 305.00 kg
Dry Mass 290.00 kg
Total Mass 305.00 kg
Length 0.20 m
Diameter 2.80 m
Span 9.00 m
Shape Box + pan
Manufacturer SPXS
Bus Type Starlink
Phase Status In Orbit
Owner/State SPXS/US

Large Constellations

Loading constellations...